ProjectID,Date,Electric Generation,Electric Utility Import,Facility Electric Load
,YYYY-MM-DD,kW,kW,kW
35,2008-08-11,0.0,,0.0
35,2008-08-12,0.005625000000000001,324.549,324.554625
35,2008-08-13,0.009458333333333334,258.9066666666667,258.916125
35,2008-08-14,0.009125,274.98837499999996,274.99749999999995
35,2008-08-15,0.009291666666666667,304.91508333333337,304.92437500000005
35,2008-08-16,0.009458333333333334,166.52879166666665,166.53824999999998
35,2008-08-17,0.009083333333333334,173.55283333333333,173.56191666666666
35,2008-08-18,138.43958333333333,195.19758333333334,333.63716666666664
35,2008-08-19,185.76025,54.293416666666666,240.0536666666667
35,2008-08-20,189.08166666666668,56.053958333333334,245.135625
35,2008-08-21,128.38325,87.73258333333332,216.11583333333334
35,2008-08-22,120.96787499999999,121.94625,242.914125
35,2008-08-23,99.99145833333334,78.34945833333333,178.34091666666666
35,2008-08-24,100.00158333333333,80.78770833333333,180.78929166666666
35,2008-08-25,166.235125,145.00175,311.236875
35,2008-08-26,187.89362500000001,115.371125,303.26475000000005
35,2008-08-27,187.41758333333334,99.76495833333333,287.1825416666667
35,2008-08-28,185.9668333333333,101.06770833333333,287.03454166666666
35,2008-08-29,189.09333333333333,112.43108333333333,301.52441666666664
35,2008-08-30,139.39770833333333,24.633478260869566,164.0311865942029
35,2008-08-31,6.294208333333334,24.137,30.431208333333334
35,2008-09-01,184.25558333333333,97.22141666666666,281.477
35,2008-09-02,164.38254166666667,169.27504166666668,333.6575833333334
35,2008-09-03,192.66979166666667,165.965375,358.6351666666667
35,2008-09-04,193.014,174.36270833333333,367.37670833333334
35,2008-09-05,192.4332916666667,165.22604166666667,357.6593333333334
35,2008-09-06,163.61908333333335,26.74291666666667,190.36200000000002
35,2008-09-07,158.694,28.22158333333333,186.91558333333333
35,2008-09-08,116.13641666666666,235.76583333333335,351.90225
35,2008-09-09,105.41104166666666,250.82713043478262,356.23817210144927
35,2008-09-10,0.0,,0.0
35,2008-09-11,0.0,,0.0
35,2008-09-12,0.0,,0.0
35,2008-09-13,0.0,,0.0
35,2008-09-14,0.0,,0.0
35,2008-09-15,0.0,,0.0
35,2008-09-16,0.0,,0.0
35,2008-09-17,0.0,,0.0
35,2008-09-18,0.0,,0.0
35,2008-09-19,0.0,,0.0
35,2008-09-20,0.0,,0.0
35,2008-09-21,0.0,,0.0
35,2008-09-22,0.0,,0.0
35,2008-09-23,0.0,,0.0
35,2008-09-24,8.028125000000001,158.704,166.732125
35,2008-09-25,155.76254166666666,105.79110526315789,261.55364692982454
35,2008-09-26,193.026125,127.04270833333334,320.0688333333334
35,2008-09-27,163.89958333333334,27.38225,191.28183333333334
35,2008-09-28,155.65329166666666,25.149708333333333,180.803
35,2008-09-29,180.79616666666666,91.48039130434782,272.2765579710145
35,2008-09-30,7.014500000000001,23.504,30.518500000000003
35,2008-10-01,176.64670833333332,74.10772727272727,250.7544356060606
35,2008-10-02,195.97245833333332,88.982375,284.95483333333334
35,2008-10-03,193.55525,71.45758333333333,265.01283333333333
35,2008-10-04,174.40595833333336,41.25745833333333,215.6634166666667
35,2008-10-05,173.577625,34.09254166666667,207.6701666666667
35,2008-10-06,191.71016666666665,74.13329166666666,265.84345833333333
35,2008-10-07,194.49558333333334,98.48875,292.9843333333333
35,2008-10-08,198.54029166666666,101.34054166666665,299.8808333333333
35,2008-10-09,197.94758333333334,103.09208333333333,301.0396666666667
35,2008-10-10,197.59354166666665,100.803625,298.39716666666664
35,2008-10-11,167.01716666666667,24.903208333333335,191.920375
35,2008-10-12,168.92004166666666,24.639166666666668,193.55920833333334
35,2008-10-13,181.5065,32.56979166666667,214.07629166666666
35,2008-10-14,193.88670833333333,100.460375,294.34708333333333
35,2008-10-15,198.43466666666666,100.67195833333334,299.106625
35,2008-10-16,198.27108333333334,106.64820833333333,304.91929166666665
35,2008-10-17,189.94254166666667,97.17482608695653,287.11736775362317
35,2008-10-18,0.0,,0.0
35,2008-10-19,0.0,,0.0
35,2008-10-20,0.0,,0.0
35,2008-10-21,0.0,,0.0
35,2008-10-22,0.0,,0.0
35,2008-10-23,0.0,,0.0
35,2008-10-24,0.0,,0.0
35,2008-10-25,0.0,,0.0
35,2008-10-26,0.0,,0.0
35,2008-10-27,0.0,,0.0
35,2008-10-28,0.0,,0.0
35,2008-10-29,0.0,,0.0
35,2008-10-30,0.0,,0.0
35,2008-10-31,0.0,,0.0
35,2008-11-01,0.0,,0.0
35,2008-11-02,0.0,,0.0
35,2008-11-03,0.0,,0.0
35,2008-11-04,0.0,,0.0
35,2008-11-05,0.0,,0.0
35,2008-11-06,24.984791666666666,66.52833333333334,91.513125
35,2008-11-07,165.75120833333332,71.4786,237.22980833333332
35,2008-11-08,167.81025,25.167166666666663,192.97741666666667
35,2008-11-09,176.20024999999998,25.818625,202.01887499999998
35,2008-11-10,0.0,,0.0
35,2008-11-11,0.0,,0.0
35,2008-11-12,0.0,,0.0
35,2008-11-13,0.0,,0.0
35,2008-11-14,0.0,,0.0
35,2008-11-15,0.0,,0.0
35,2008-11-16,0.0,,0.0
35,2008-11-17,0.0,,0.0
35,2008-11-18,0.0,,0.0
35,2008-11-19,25.00091666666667,62.937000000000005,87.93791666666667
35,2008-11-20,199.87362499999998,120.46749999999999,320.341125
35,2008-11-21,198.64891666666665,103.32095833333334,301.969875
35,2008-11-22,183.76625,25.360833333333332,209.12708333333336
35,2008-11-23,181.85833333333335,27.680958333333333,209.53929166666668
35,2008-11-24,197.466,103.69954166666668,301.1655416666667
35,2008-11-25,199.52645833333335,96.05929166666665,295.58575
35,2008-11-26,192.76504166666666,26.96291666666667,219.72795833333333
35,2008-11-27,185.39920833333335,25.748125,211.14733333333334
35,2008-11-28,189.7012083333333,26.337958333333333,216.03916666666663
35,2008-11-29,179.21287500000003,24.791666666666668,204.00454166666668
35,2008-11-30,0.0,,0.0
35,2008-12-01,196.443625,99.06958333333334,295.51320833333335
35,2008-12-02,182.976625,109.1270909090909,292.1037159090909
35,2008-12-03,199.709625,102.95133333333332,302.6609583333333
35,2008-12-04,198.70791666666665,115.08054166666666,313.7884583333333
35,2008-12-05,199.81504166666664,105.41683333333333,305.23187499999995
35,2008-12-06,193.60679166666668,26.740583333333333,220.347375
35,2008-12-07,186.74666666666667,25.624958333333336,212.371625
35,2008-12-08,199.11120833333334,112.77445833333333,311.8856666666667
35,2008-12-09,199.732875,107.77487500000001,307.50775
35,2008-12-10,199.4584166666667,105.88245833333333,305.34087500000004
35,2008-12-11,199.50445833333333,107.65166666666666,307.156125
35,2008-12-12,127.21916666666668,183.93925000000002,311.1584166666667
35,2008-12-13,188.49816666666666,29.63870833333333,218.136875
35,2008-12-14,175.46279166666667,25.176000000000002,200.6387916666667
35,2008-12-15,192.33904166666665,103.76983333333334,296.108875
35,2008-12-16,199.79025000000001,113.88366666666667,313.6739166666667
35,2008-12-17,199.55533333333335,106.95625,306.51158333333336
35,2008-12-18,199.41004166666667,110.99641666666668,310.4064583333334
35,2008-12-19,198.12425,41.05495833333333,239.17920833333332
35,2008-12-20,189.56029166666667,28.61775,218.17804166666667
35,2008-12-21,188.30445833333332,26.637125,214.9415833333333
35,2008-12-22,198.96929166666666,42.868249999999996,241.83754166666665
35,2008-12-23,199.147375,91.14779166666666,290.29516666666666
35,2008-12-24,183.45983333333334,25.299333333333333,208.75916666666666
35,2008-12-25,179.92,25.3785,205.2985
35,2008-12-26,192.17120833333334,28.679374999999997,220.85058333333333
35,2008-12-27,167.47575,24.964875000000003,192.440625
35,2008-12-28,161.70108333333334,23.97666666666667,185.67775
35,2008-12-29,192.60216666666668,34.19829166666667,226.80045833333335
35,2008-12-30,193.67620833333334,34.101375,227.77758333333333
35,2008-12-31,0.0,,0.0
35,2009-01-01,0.0,,0.0
35,2009-01-02,0.0,,0.0
35,2009-01-03,0.0,,0.0
35,2009-01-04,0.0,,0.0
35,2009-01-05,0.0,,0.0
35,2009-01-06,0.0,,0.0
35,2009-01-07,0.0,,0.0
35,2009-01-08,0.0,,0.0
35,2009-01-09,0.0,,0.0
35,2009-01-10,0.0,,0.0
35,2009-01-11,0.0,,0.0
35,2009-01-12,97.023375,195.6522380952381,292.6756130952381
35,2009-01-13,33.31045833333334,238.55614285714287,271.8666011904762
35,2009-01-14,0.0,,0.0
35,2009-01-15,0.0,,0.0
35,2009-01-16,94.78208333333333,143.03523076923076,237.8173141025641
35,2009-01-17,174.96437500000002,59.59078260869565,234.55515760869565
35,2009-01-18,174.973375,49.945249999999994,224.918625
35,2009-01-19,0.0,,0.0
35,2009-01-20,0.0,,0.0
35,2009-01-21,94.78699999999999,147.2962307692308,242.0832307692308
35,2009-01-22,174.97275,133.95220833333335,308.92495833333334
35,2009-01-23,174.99379166666665,115.159875,290.15366666666665
35,2009-01-24,174.58095833333334,39.866875,214.44783333333334
35,2009-01-25,173.637875,40.438916666666664,214.07679166666668
35,2009-01-26,167.68645833333332,126.37374999999999,294.0602083333333
35,2009-01-27,174.98904166666668,133.142375,308.13141666666667
35,2009-01-28,174.99170833333335,68.15670833333333,243.14841666666666
35,2009-01-29,174.987125,124.64833333333333,299.6354583333333
35,2009-01-30,0.0,,0.0
35,2009-01-31,0.0,,0.0
35,2009-02-01,0.0,,0.0
35,2009-02-02,0.0,,0.0
35,2009-02-03,0.0,,0.0
35,2009-02-04,0.0,,0.0
35,2009-02-05,94.79445833333334,159.09384615384613,253.88830448717948
35,2009-02-06,174.99116666666666,128.10774999999998,303.09891666666664
35,2009-02-07,174.661125,41.33675,215.997875
35,2009-02-08,91.01691666666666,116.08404166666666,207.10095833333332
35,2009-02-09,0.0,299.273125,299.273125
35,2009-02-10,0.0,292.09749999999997,292.09749999999997
35,2009-02-11,0.0,300.5387272727273,300.5387272727273
35,2009-02-12,0.10416666666666667,300.0300625,300.13422916666667
35,2009-02-13,0.0,316.1499230769231,316.1499230769231
35,2009-02-14,0.0,218.63699999999997,218.63699999999997
35,2009-02-15,0.0,207.92499999999998,207.92499999999998
35,2009-02-16,0.0,228.939875,228.939875
35,2009-02-17,0.0,,0.0
35,2009-02-18,0.0,,0.0
35,2009-02-19,0.0,,0.0
35,2009-02-20,0.0,,0.0
35,2009-02-21,0.0,,0.0
35,2009-02-22,0.0,,0.0
35,2009-02-23,0.0,300.94544444444443,300.94544444444443
35,2009-02-24,0.0,318.47925000000004,318.47925000000004
35,2009-02-25,0.0,317.15883333333335,317.15883333333335
35,2009-02-26,0.0,302.732375,302.732375
35,2009-02-27,0.0,300.6900416666667,300.6900416666667
35,2009-02-28,0.0,,0.0
35,2009-03-01,0.0,206.107125,206.107125
35,2009-03-02,0.0,47.26979166666666,47.26979166666666
35,2009-03-03,0.0,49.127125,49.127125
35,2009-03-04,0.0,49.267875000000004,49.267875000000004
35,2009-03-05,0.0,,0.0
35,2009-03-06,0.0,,0.0
35,2009-03-07,0.0,,0.0
35,2009-03-08,0.0,,0.0
35,2009-03-09,0.0,,0.0
35,2009-03-10,0.0,,0.0
35,2009-03-11,0.0,,0.0
35,2009-03-12,0.0,,0.0
35,2009-03-13,0.0,,0.0
35,2009-03-14,0.0,,0.0
35,2009-03-15,0.0,,0.0
35,2009-03-16,0.0,,0.0
35,2009-03-17,0.0,,0.0
35,2009-03-18,0.0,,0.0
35,2009-03-19,0.0,,0.0
35,2009-03-20,0.0,,0.0
35,2009-03-21,0.0,,0.0
35,2009-03-22,0.0,,0.0
35,2009-03-23,0.0,,0.0
35,2009-03-24,0.0,,0.0
35,2009-03-25,0.0,,0.0
35,2009-03-26,0.0,,0.0
35,2009-03-27,0.0,,0.0
35,2009-03-28,0.0,,0.0
35,2009-03-29,0.0,,0.0
35,2009-03-30,0.0,,0.0
35,2009-03-31,0.0,,0.0
35,2009-04-01,0.0,,0.0
35,2009-04-02,0.0,,0.0
35,2009-04-03,0.0,,0.0
35,2009-04-04,0.0,,0.0
35,2009-04-05,0.0,,0.0
35,2009-04-06,0.0,,0.0
35,2009-04-07,83.238375,86.1819,169.420275
35,2009-04-08,199.42475000000002,96.47304166666667,295.8977916666667
35,2009-04-09,198.24195833333332,85.88408333333332,284.12604166666665
35,2009-04-10,176.47554166666666,25.404833333333332,201.880375
35,2009-04-11,161.0,25.026375,186.026375
35,2009-04-12,167.020375,25.53695833333333,192.55733333333333
35,2009-04-13,192.08808333333332,98.45295833333334,290.5410416666667
35,2009-04-14,189.49179166666667,87.60434782608696,277.09613949275365
35,2009-04-15,180.75424999999998,84.18045454545455,264.93470454545457
35,2009-04-16,40.491708333333335,55.36,95.85170833333333
35,2009-04-17,191.633375,69.28337499999999,260.91675
35,2009-04-18,153.87058333333331,25.000083333333333,178.87066666666664
35,2009-04-19,154.92866666666666,24.630166666666668,179.55883333333333
35,2009-04-20,184.6045,37.95441666666667,222.55891666666668
35,2009-04-21,187.30425,34.92875,222.233
35,2009-04-22,192.97525,46.00183333333334,238.97708333333333
35,2009-04-23,192.7195,37.86879166666667,230.5882916666667
35,2009-04-24,181.55483333333333,25.431375,206.98620833333334
35,2009-04-25,151.99491666666668,24.973625,176.96854166666668
35,2009-04-26,154.95975,25.836166666666667,180.79591666666667
35,2009-04-27,187.941375,91.2445,279.185875
35,2009-04-28,193.28508333333332,86.33300000000001,279.61808333333335
35,2009-04-29,186.851375,80.63317391304348,267.48454891304345
35,2009-04-30,6.997583333333334,24.56,31.557583333333334
35,2009-05-01,190.494625,74.56454166666667,265.05916666666667
35,2009-05-02,146.68116666666666,24.806375,171.48754166666666
35,2009-05-03,142.71104166666666,25.77931818181818,168.49035984848484
35,2009-05-04,186.54208333333335,80.101125,266.64320833333335
35,2009-05-05,194.4237916666667,84.87841666666667,279.30220833333334
35,2009-05-06,196.706375,96.46420833333333,293.17058333333335
35,2009-05-07,193.16549999999998,76.20166666666667,269.36716666666666
35,2009-05-08,177.46791666666664,80.61358333333334,258.0815
35,2009-05-09,165.23858333333334,28.336083333333335,193.57466666666667
35,2009-05-10,131.81895833333334,25.04404166666667,156.863
35,2009-05-11,187.13525,85.80479166666667,272.9400416666667
35,2009-05-12,194.27625,76.105,270.38125
35,2009-05-13,196.48304166666665,92.873,289.35604166666667
35,2009-05-14,177.15179166666667,50.95249999999999,228.10429166666665
35,2009-05-15,192.48175,74.11570833333333,266.59745833333335
35,2009-05-16,143.10508333333334,25.228916666666667,168.334
35,2009-05-17,133.042875,24.92079166666667,157.96366666666668
35,2009-05-18,184.74770833333332,82.43370833333334,267.1814166666667
35,2009-05-19,189.032875,70.2295,259.262375
35,2009-05-20,46.58895833333333,6.448125,53.03708333333333
35,2009-05-21,146.851125,57.802083333333336,204.65320833333334
35,2009-05-22,196.67483333333334,76.19291666666668,272.86775
35,2009-05-23,187.66725,30.589333333333332,218.25658333333334
35,2009-05-24,187.59375,30.087625,217.681375
35,2009-05-25,191.47620833333335,57.611875,249.08808333333334
35,2009-05-26,197.26604166666667,72.04233333333333,269.308375
35,2009-05-27,198.30124999999998,69.52604166666667,267.82729166666667
35,2009-05-28,108.20912499999999,23.473583333333334,131.68270833333332
35,2009-05-29,0.0,9.402916666666666,9.402916666666666
35,2009-05-30,73.104,124.32283333333334,197.42683333333332
35,2009-05-31,108.73045833333333,26.646125,135.37658333333334
35,2009-06-01,155.82466666666667,95.21710526315789,251.04177192982456
35,2009-06-02,197.75812499999998,72.687125,270.44525
35,2009-06-03,188.2770416666667,58.00847826086956,246.28551992753626
35,2009-06-04,195.79845833333331,102.49129166666667,298.28974999999997
35,2009-06-05,194.52949999999998,52.255125,246.78462499999998
35,2009-06-06,181.609875,38.16804166666667,219.77791666666667
35,2009-06-07,168.23120833333334,23.492583333333332,191.72379166666667
35,2009-06-08,196.12941666666666,51.72470833333333,247.85412499999998
35,2009-06-09,196.89179166666668,60.639041666666664,257.53083333333336
35,2009-06-10,197.18766666666667,51.15924999999999,248.34691666666666
35,2009-06-11,199.54166666666666,57.963208333333334,257.50487499999997
35,2009-06-12,197.94583333333333,49.32183333333333,247.26766666666666
35,2009-06-13,180.76987499999998,28.740916666666667,209.51079166666665
35,2009-06-14,178.03075,26.426000000000002,204.45675
35,2009-06-15,195.07308333333333,52.61375,247.68683333333334
35,2009-06-16,199.60708333333332,67.77516666666666,267.38225
35,2009-06-17,199.90025,69.08895833333334,268.98920833333335
35,2009-06-18,199.805625,69.832875,269.6385
35,2009-06-19,199.47695833333333,76.68091666666668,276.157875
35,2009-06-20,198.177625,59.83866666666666,258.0162916666667
35,2009-06-21,195.63816666666665,52.66495833333334,248.303125
35,2009-06-22,197.56833333333336,60.52920833333334,258.0975416666667
35,2009-06-23,163.341125,132.880375,296.2215
35,2009-06-24,139.4825,108.46724999999999,247.94975
35,2009-06-25,116.08999999999999,68.03466666666667,184.12466666666666
35,2009-06-26,124.99079166666667,77.40466666666667,202.39545833333335
35,2009-06-27,124.99512499999999,120.22987499999999,245.22499999999997
35,2009-06-28,168.863,48.774375,217.637375
35,2009-06-29,197.80408333333332,90.73404166666667,288.538125
35,2009-06-30,197.50691666666668,89.62441666666666,287.1313333333334
35,2009-07-01,194.81425000000002,83.10258333333333,277.91683333333333
35,2009-07-02,195.83237499999998,78.14704166666667,273.9794166666667
35,2009-07-03,190.83754166666665,54.091,244.92854166666666
35,2009-07-04,175.65233333333333,25.50175,201.15408333333335
35,2009-07-05,176.36054166666668,25.985916666666668,202.34645833333335
35,2009-07-06,195.68779166666664,78.40870833333334,274.0965
35,2009-07-07,197.71808333333334,83.613125,281.33120833333334
35,2009-07-08,197.255625,74.20375,271.459375
35,2009-07-09,196.9489583333333,72.346,269.2949583333333
35,2009-07-10,197.06954166666665,76.68533333333333,273.75487499999997
35,2009-07-11,196.43191666666667,33.960625,230.39254166666666
35,2009-07-12,195.19416666666666,30.4045,225.59866666666665
35,2009-07-13,195.62375,65.52483333333333,261.14858333333336
35,2009-07-14,196.94316666666668,61.59041666666667,258.53358333333335
35,2009-07-15,197.86629166666668,75.42716666666666,273.2934583333333
35,2009-07-16,189.45270833333333,109.49083333333334,298.94354166666665
35,2009-07-17,173.34695833333333,69.75866666666667,243.105625
35,2009-07-18,163.49791666666667,25.897875,189.39579166666667
35,2009-07-19,183.146625,25.985958333333333,209.13258333333334
35,2009-07-20,189.96879166666668,76.86721739130435,266.836009057971
35,2009-07-21,0.0,,0.0
35,2009-07-22,0.0,,0.0
35,2009-07-23,0.0,,0.0
35,2009-07-24,0.0,,0.0
35,2009-07-25,0.0,,0.0
35,2009-07-26,0.0,,0.0
35,2009-07-27,0.0,,0.0
35,2009-07-28,0.0,,0.0
35,2009-07-29,0.0,,0.0
35,2009-07-30,0.0,,0.0
35,2009-07-31,0.0,,0.0
35,2009-08-01,0.0,,0.0
35,2009-08-02,0.0,,0.0
35,2009-08-03,0.0,,0.0
35,2009-08-04,0.0,,0.0
35,2009-08-05,0.0,,0.0
35,2009-08-06,0.0,,0.0
35,2009-08-07,0.0,,0.0
35,2009-08-08,0.0,,0.0
35,2009-08-09,0.0,,0.0
35,2009-08-10,0.0,,0.0
35,2009-08-11,0.0,,0.0
35,2009-08-12,0.0,,0.0
35,2009-08-13,0.0,,0.0
35,2009-08-14,0.0,,0.0
35,2009-08-15,0.0,,0.0
35,2009-08-16,0.0,,0.0
35,2009-08-17,0.0,,0.0
35,2009-08-18,0.0,,0.0
35,2009-08-19,0.0,,0.0
35,2009-08-20,0.0,,0.0
35,2009-08-21,0.0,,0.0
35,2009-08-22,0.0,,0.0
35,2009-08-23,0.0,,0.0
35,2009-08-24,124.98241666666667,133.21286666666666,258.19528333333335
35,2009-08-25,193.216125,96.86252173913044,290.0786467391305
35,2009-08-26,190.97541666666666,100.50845833333334,291.483875
35,2009-08-27,194.010625,78.13320833333333,272.1438333333333
35,2009-08-28,197.88316666666665,80.1715,278.05466666666666
35,2009-08-29,185.97349999999997,27.8364347826087,213.80993478260868
35,2009-08-30,195.70399999999998,26.998208333333334,222.70220833333332
35,2009-08-31,198.78875000000002,96.05929166666665,294.8480416666667
35,2009-09-01,198.746625,91.165375,289.912
35,2009-09-02,196.51779166666665,106.86829166666666,303.3860833333333
35,2009-09-03,199.62216666666666,119.37608333333333,318.99825
35,2009-09-04,199.6825,89.73245833333334,289.41495833333335
35,2009-09-05,199.7492083333333,73.763625,273.51283333333333
35,2009-09-06,191.52841666666666,55.41129166666667,246.93970833333333
35,2009-09-07,199.8144166666667,93.30420833333334,293.118625
35,2009-09-08,199.90262499999997,84.81183333333333,284.7144583333333
35,2009-09-09,199.96658333333335,70.32558333333334,270.2921666666667
35,2009-09-10,199.95183333333333,65.35233333333333,265.3041666666667
35,2009-09-11,199.97420833333334,103.20820833333333,303.18241666666665
35,2009-09-12,199.6725,52.03120833333333,251.70370833333334
35,2009-09-13,199.645125,55.49933333333333,255.14445833333335
35,2009-09-14,199.94141666666667,81.42070833333334,281.362125
35,2009-09-15,199.9020416666667,53.80391666666667,253.70595833333337
35,2009-09-16,199.97495833333335,76.15479166666667,276.12975
35,2009-09-17,199.943125,96.80908333333333,296.75220833333333
35,2009-09-18,199.957125,78.74908333333333,278.70620833333334
35,2009-09-19,199.54420833333333,51.397416666666665,250.941625
35,2009-09-20,199.21279166666667,49.804375,249.01716666666667
35,2009-09-21,199.97983333333332,130.02195833333334,330.0017916666667
35,2009-09-22,199.97095833333333,71.26729166666667,271.23825
35,2009-09-23,199.99841666666669,60.13045833333334,260.128875
35,2009-09-24,199.923375,70.79854166666667,270.72191666666663
35,2009-09-25,200.0125416666667,67.80354166666667,267.8160833333334
35,2009-09-26,199.91099999999997,106.79783333333334,306.7088333333333
35,2009-09-27,199.75725,69.13375,268.891
35,2009-09-28,199.88845833333335,90.77766666666668,290.666125
35,2009-09-29,199.26133333333334,118.09100000000001,317.3523333333334
35,2009-09-30,199.06224999999998,86.66054166666667,285.72279166666664
35,2009-10-01,199.80225,100.48866666666667,300.29091666666665
35,2009-10-02,199.88633333333334,83.94083333333333,283.8271666666667
35,2009-10-03,194.46120833333336,28.987291666666668,223.44850000000002
35,2009-10-04,190.854375,30.879958333333335,221.73433333333332
35,2009-10-05,199.93050000000002,117.870875,317.801375
35,2009-10-06,199.89079166666667,91.44891666666666,291.3397083333333
35,2009-10-07,199.94208333333333,74.65229166666667,274.594375
35,2009-10-08,199.9565,74.63158333333332,274.5880833333333
35,2009-10-09,199.97329166666668,99.83741666666667,299.81070833333337
35,2009-10-10,184.49091666666666,26.760458333333332,211.251375
35,2009-10-11,192.56775000000002,31.936083333333332,224.50383333333335
35,2009-10-12,199.81941666666668,72.23204166666666,272.05145833333336
35,2009-10-13,199.92104166666664,81.44516666666667,281.3662083333333
35,2009-10-14,199.88195833333336,103.49675,303.37870833333335
35,2009-10-15,199.85079166666665,90.126375,289.9771666666667
35,2009-10-16,199.79466666666667,93.326125,293.12079166666666
35,2009-10-17,192.90312500000002,27.79025,220.693375
35,2009-10-18,195.207125,32.473083333333335,227.68020833333333
35,2009-10-19,199.941375,98.99216666666666,298.93354166666666
35,2009-10-20,199.98483333333334,85.75166666666667,285.7365
35,2009-10-21,199.96816666666666,114.18054166666667,314.14870833333333
35,2009-10-22,117.84179166666667,49.623124999999995,167.46491666666665
35,2009-10-23,180.0005,73.529875,253.530375
35,2009-10-24,173.63525,28.626499999999997,202.26175
35,2009-10-25,172.63604166666667,33.987,206.62304166666667
35,2009-10-26,179.992875,108.26745833333332,288.26033333333334
35,2009-10-27,179.99829166666666,84.14095833333333,264.13925
35,2009-10-28,180.01016666666666,70.97729166666666,250.98745833333334
35,2009-10-29,180.00775,71.930125,251.937875
35,2009-10-30,179.983125,77.69129166666666,257.6744166666667
35,2009-10-31,172.653625,27.948666666666668,200.60229166666667
35,2009-11-01,165.40883333333332,37.60369565217391,203.01252898550723
35,2009-11-02,180.0035,122.68745833333332,302.69095833333336
35,2009-11-03,179.99504166666668,120.56441666666666,300.55945833333334
35,2009-11-04,180.00429166666666,92.720625,272.7249166666667
35,2009-11-05,179.995125,95.89820833333333,275.8933333333333
35,2009-11-06,179.98425,83.78841666666666,263.7726666666667
35,2009-11-07,173.75945833333333,33.714166666666664,207.473625
35,2009-11-08,180.404375,31.275833333333335,211.68020833333333
35,2009-11-09,199.727625,71.3955,271.12312499999996
35,2009-11-10,199.61979166666666,67.96929166666666,267.5890833333333
35,2009-11-11,198.3216666666667,46.371625,244.69329166666668
35,2009-11-12,199.85675,71.99175,271.8485
35,2009-11-13,199.89766666666665,62.23675,262.13441666666665
35,2009-11-14,183.35541666666666,30.378208333333333,213.733625
35,2009-11-15,178.78308333333334,25.422583333333336,204.20566666666667